Terminal Aerodrome Forecast
Issued by NWS

Home | Current Version | Previous Version | Text Only | Print | Product List | Glossary On
Versions: 1 2 3 4 5 6 7 8 9 10 11 12 13 14 15 16 17 18 19 20 21 22 23 24 25 26 27 28 29 30 31 32 33
291
FTUS43 KDVN 230333 CCA
TAFBRL
TAF COR
KBRL 230333Z 2300/2324 12010KT 1SM -RADZ BR OVC002
      TEMPO 2303/2307 1/4SM -DZ FG VV002
     FM231000 19010KT 3SM BR OVC006
     FM231400 28008KT P6SM OVC010
     FM231700 30010KT P6SM SCT020=

USA.gov is the U.S. government's official web portal to all federal, state and local government web resources and services.